CW9436 Weather Reports


Display with metric or nautical units.
time (UTC)temp
F
wind
direction
speed
MPH
gust
MPH
rain 1hr
in
rain 24hr
in
rain mn
in
humidity
%
barometer
mb
20190222030729 46 135 2.0 9.0 0.00 0.00 0.00 98 1029.0
20190222024731 46 124 6.0 9.0 0.00 0.00 0.00 98 1029.0
20190222015730 47 133 5.0 9.0 0.00 0.00 0.00 97 1029.0
20190222014730 47 146 4.0 8.0 0.00 0.00 0.00 97 1029.0
20190222012729 47 153 5.0 9.0 0.00 0.00 0.00 96 1029.0
20190222011730 47 122 3.0 6.0 0.00 0.00 0.00 96 1029.0
20190222005729 47 126 3.0 6.0 0.00 0.00 0.00 96 1029.0
20190222004730 47 150 5.0 8.0 0.00 0.00 0.00 96 1029.0
20190222004630 47 142 5.0 8.0 0.00 0.00 0.00 96 1029.0
20190222003630 47 165 4.0 9.0 0.00 0.00 0.00 96 1029.0
20190222002630 48 147 7.0 10.0 0.00 0.00 0.00 96 1028.0
20190222001630 48 152 6.0 10.0 0.00 0.00 0.00 96 1028.0
20190221233631 48 151 7.0 9.0 0.00 0.00 0.00 94 1028.0
20190221232630 48 154 6.0 8.0 0.00 0.00 0.00 94 1028.0
20190221230631 48 143 4.0 8.0 0.00 0.00 0.00 92 1028.0
20190221224630 48 150 3.0 6.0 0.00 0.00 0.00 90 1028.0
20190221223631 48 150 4.0 6.0 0.00 0.00 0.00 89 1028.0
20190221222630 48 150 4.0 6.0 0.00 0.00 0.00 89 1028.0
20190221221630 49 142 3.0 6.0 0.00 0.00 0.00 89 1027.8
20190221220630 49 153 3.0 7.0 0.00 0.00 0.00 88 1027.0
20190221213630 49 152 2.0 7.0 0.00 0.00 0.00 88 1027.0
20190221211630 49 127 3.0 6.0 0.00 0.00 0.00 89 1027.0
20190221210630 49 158 3.0 6.0 0.00 0.00 0.00 89 1027.0
20190221205630 49 113 3.0 6.0 0.00 0.00 0.00 89 1027.0
20190221204630 49 113 3.0 5.0 0.00 0.00 0.00 89 1027.0
20190221203630 49 125 3.0 3.0 0.00 0.00 0.00 89 1027.0
20190221202630 50 131 3.0 6.0 0.00 0.00 0.00 89 1027.0
20190221200630 51 119 3.0 8.0 0.00 0.00 0.00 89 1026.0
20190221195633 51 128 5.0 8.0 0.00 0.00 0.00 89 1026.0
20190221194631 51 115 4.0 6.0 0.00 0.00 0.00 89 1026.0
20190221193630 51 126 3.0 6.0 0.00 0.00 0.00 89 1026.0
20190221191630 51 140 2.0 3.0 0.00 0.00 0.00 90 1026.0
20190221190630 51 136 0.0 6.0 0.00 0.00 0.00 91 1026.0
20190221185631 50 126 1.0 6.0 0.00 0.00 0.00 90 1026.0
20190221184632 50 160 3.0 3.0 0.00 0.00 0.00 90 1026.0
20190221183631 50 110 2.0 3.0 0.00 0.00 0.00 89 1025.0
20190221182630 51 98 2.0 3.0 0.00 0.00 0.00 89 1025.0
20190221181631 51 181 0.0 0.0 0.00 0.00 0.00 87 1025.0
20190221180630 51 181 0.0 0.0 0.00 0.00 0.00 84 1025.0
20190221175632 52 181 0.0 0.0 0.00 0.00 0.00 82 1025.0
20190221170630 56 190 3.0 8.0 0.00 0.00 0.00 73 1024.0
20190221164630 57 202 3.0 8.0 0.00 0.00 0.00 72 1024.0
20190221162630 58 183 3.0 6.0 0.00 0.00 0.00 69 1024.0
20190221161629 58 189 3.0 6.0 0.00 0.00 0.00 67 1024.0
20190221160632 59 178 4.0 8.0 0.00 0.00 0.00 66 1024.0
20190221155630 59 195 3.0 8.0 0.00 0.00 0.00 65 1024.0
20190221154630 59 198 6.0 9.0 0.00 0.00 0.00 64 1024.0
20190221153631 59 165 6.0 9.0 0.00 0.00 0.00 63 1024.0
20190221152630 59 192 6.0 8.0 0.00 0.00 0.00 62 1024.0
20190221151630 59 179 6.0 8.0 0.00 0.00 0.00 62 1024.0
20190221150630 60 181 6.0 9.0 0.00 0.00 0.00 61 1024.0
20190221142630 62 157 5.0 7.0 0.00 0.00 0.00 62 1024.0
20190221141630 62 83 2.0 5.0 0.00 0.00 0.00 64 1024.0
20190221134630 61 150 3.0 5.0 0.00 0.00 0.00 63 1024.0
20190221133630 61 173 0.0 3.0 0.00 0.00 0.00 62 1023.0
20190221130630 61 219 5.0 6.0 0.00 0.00 0.00 65 1023.0
20190221125630 61 260 4.0 6.0 0.00 0.00 0.00 65 1023.0
20190221124631 61 315 3.0 6.0 0.00 0.00 0.00 65 1023.0
20190221122630 62 299 1.0 5.0 0.00 0.00 0.00 63 1023.0
20190221121631 62 241 0.0 3.0 0.00 0.00 0.00 62 1023.0
20190221120630 62 244 1.0 3.0 0.00 0.00 0.00 62 1023.0
20190221115631 61 126 2.0 5.0 0.00 0.00 0.00 61 1023.0
20190221113631 62 115 0.0 6.0 0.00 0.00 0.00 64 1023.0
20190221112631 61 147 3.0 6.0 0.00 0.00 0.00 64 1022.0
20190221111631 62 139 1.0 5.0 0.00 0.00 0.00 68 1022.0
20190221110630 61 75 3.0 5.0 0.00 0.00 0.00 70 1022.0
20190221105631 60 259 1.0 3.0 0.00 0.00 0.00 72 1022.0
20190221104631 60 200 3.0 6.0 0.00 0.00 0.00 72 1022.0
20190221102631 59 174 3.0 8.0 0.00 0.00 0.00 77 1022.0
20190221101631 59 181 3.0 6.0 0.00 0.00 0.00 77 1021.9
20190221100632 59 179 2.0 3.0 0.00 0.00 0.00 80 1021.0
20190221095631 58 175 3.0 6.0 0.00 0.00 0.00 81 1021.0
20190221094631 57 162 3.0 6.0 0.00 0.00 0.00 84 1021.0
20190221092631 57 178 4.0 7.0 0.00 0.00 0.00 90 1021.0
20190221085631 54 168 3.0 6.0 0.00 0.00 0.00 94 1021.0
20190221084631 54 185 3.0 9.0 0.00 0.00 0.00 94 1021.0
20190221083631 54 150 3.0 8.0 0.00 0.00 0.00 94 1021.0
20190221082631 54 153 4.0 8.0 0.00 0.00 0.00 94 1020.0
20190221081631 54 218 2.0 6.0 0.00 0.00 0.00 94 1020.0
20190221080632 54 154 3.0 6.0 0.00 0.00 0.00 94 1020.0
20190221074631 54 147 5.0 6.0 0.00 0.00 0.00 94 1020.0
20190221072631 53 131 3.0 8.0 0.00 0.00 0.00 95 1020.0
20190221071632 53 146 3.0 6.0 0.00 0.00 0.00 94 1019.8
20190221065632 53 117 2.0 6.0 0.00 0.00 0.00 94 1019.0
20190221064633 53 154 3.0 6.0 0.00 0.00 0.00 94 1019.0
20190221063633 53 145 3.0 8.0 0.00 0.00 0.00 94 1019.0
20190221060633 53 150 5.0 9.0 0.00 0.00 0.00 95 1019.0
20190221055633 53 164 6.0 10.0 0.00 0.00 0.00 95 1018.0
20190221054633 53 146 6.0 9.0 0.00 0.01 0.00 94 1018.0
20190221052633 53 158 5.0 9.0 0.00 0.01 0.00 94 1018.0
20190221051633 53 135 5.0 10.0 0.00 0.02 0.00 94 1018.0
20190221050632 53 155 6.0 9.0 0.00 0.02 0.00 94 1018.0
20190221045633 53 156 6.0 10.0 0.00 0.02 0.00 94 1018.0
20190221044633 53 155 5.0 12.0 0.00 0.02 0.00 94 1018.0
20190221043634 53 157 5.0 10.0 0.00 0.02 0.00 93 1018.0
20190221042634 53 150 6.0 12.0 0.00 0.02 0.00 94 1018.0
20190221040634 53 157 7.0 13.0 0.00 0.02 0.00 94 1018.0
20190221035632 53 152 7.0 13.0 0.00 0.02 0.00 94 1018.0
20190221034633 53 152 7.0 12.0 0.00 0.02 0.00 95 1018.0
20190221032632 52 76 4.0 8.0 0.00 0.02 0.00 94 1017.0
20190221031633 52 112 5.0 8.0 0.00 0.02 0.00 94 1017.1